Skip Page Navigation
NASA JPL Caltech
NASA Logo - Jet Propulsion Laboratory + View the NASA Portal
+ Center for Near-Earth Object Studies
JPL Home Earth Solar System Stars & Galaxies Technology
JPL Solar System Dynamics
BODIES ORBITS EPHEMERIDES TOOLS PHYSICAL DATA DISCOVERY FAQ SITE MAP
IMPORTANT: The SSD Announcement email list is now available. Major changes are coming in the near future, including possible hostname and/or URL changes. To be notified of such changes, subscribe to this email list.

Please visit this page for more details.


JPL Small-Body Database Browser
Search: [ help ]  
476 Hedwig (A901 QB)
Classification: Main-belt Asteroid          SPK-ID: 2000476
Ephemeris | Orbit Diagram | Orbital Elements | Mission Design | Physical Parameters | Discovery Circumstances ]

[ show orbit diagram ]
Orbital Elements at Epoch 2458600.5 (2019-Apr-27.0) TDB
Reference: JPL 101 (heliocentric ecliptic J2000)
 Element Value Uncertainty (1-sigma)   Units 
e .07248560360083092 4.2621e-08  
a 2.650767961577729 8.7485e-09 au
q 2.458625445877023 1.1153e-07 au
i 10.9261824713255 4.6698e-06 deg
node 286.3415603865408 1.8594e-05 deg
peri .8973257013133596 3.137e-05 deg
M 145.1239062406889 2.6266e-05 deg
tp 2457965.033801005769
(2017-Jul-30.53380101)
0.00011387 TDB
period 1576.362141593063
4.32
7.8039e-06
2.137e-08
d
yr
n .2283739189753606 1.1306e-09 deg/d
Q 2.842910477278435 9.3827e-09 au
  Orbit Determination Parameters
   # obs. used (total)      2366  
   data-arc span      43211 days (118.31 yr)  
   first obs. used      1901-08-17  
   last obs. used      2019-12-07  
   planetary ephem.      DE431  
   SB-pert. ephem.      SB431-N16  
   condition code      0  
   norm. resid. RMS      .46483  
   source      ORB  
   producer      Otto Matic  
   solution date      2019-Dec-13 20:43:35  

Additional Information
 Earth MOID = 1.4416 au 
 Jupiter MOID = 2.305 au 
 T_jup = 3.361 
[ show covariance matrix ]

Ephemeris | Orbit Diagram | Orbital Elements | Mission Design | Physical Parameters | Discovery Circumstances ]

Physical Parameter Table
Parameter Symbol Value Units Sigma Reference Notes
absolute magnitude H 8.6   n/a MPO502157 IRAS observations used: 10
diameter diameter 138.493 km 0.975 urn:nasa:pds:neowise_diameters_albedos::2.0[mainbelt] (http://adsabs.harvard.edu/abs/2012ApJ...759L...8M)  
rotation period rot_per 27.33 h n/a LCDB (Rev. 2019-January); Warner et al., 2009 Published Reference List:
[Schober, H.J.; Schroll, A. (1985) Astron. Astrophys. Suppl. Ser. 62, 2, 187-189.]
[Marciniak, A.; Pilcher, F.; Oszkiewicz, D.; Santana-Ros, T.; et al. (2015) Planet. Space Sci. 118, 256-266.]
[Behrend, R. (2018) Observatoire de Geneve web site, http://obswww.unige.ch/~behrend/page_cou.html]
geometric albedo albedo 0.035   0.005 urn:nasa:pds:neowise_diameters_albedos::2.0[mainbelt] (http://adsabs.harvard.edu/abs/2012ApJ...759L...8M)  
B-V BV 0.716   0.027 EAR-A-5-DDR-UBV-MEAN-VALUES-V1.2 #obs=2; phase (min.=8.74, mean=11.59, max.=14.43) deg.
U-B UB 0.375   0.029 EAR-A-5-DDR-UBV-MEAN-VALUES-V1.2 #obs=2; phase (min.=8.74, mean=11.59, max.=14.43) deg.
Tholen spectral type spec_T P   n/a EAR-A-5-DDR-TAXONOMY-V4.0 used 7 color indices; used ground-based radiometric albedo
SMASSII spectral type spec_B X   n/a EAR-A-5-DDR-TAXONOMY-V4.0 based on a high-resolution spectrum by Xu et al. (1995) or Bus and Binzel (2002)

476 Hedwig (A901 QB)          Discovered 1901-Aug-17 by Carnera, L. at Heidelberg
Reference: DISCOVERY.DBLast Updated: 2003-08-29

Alternate Designations
 A901 QB = 1974 PL 
Ephemeris | Orbit Diagram | Orbital Elements | Mission Design | Physical Parameters | Discovery Circumstances ]
ABOUT SSD CREDITS/AWARDS PRIVACY/COPYRIGHT GLOSSARY LINKS
FirstGov 2020-Jan-28 23:05 UT
(server date/time)  
NASA Home Page
Site Manager:   Ryan S. Park
Webmaster  Alan B. Chamberlin